[[{"header":{"parameterUnit":"m.s-1","parameterCategory":1,"la1":30.2991,"la2":30.254,"lo1":-89.0895,"lo2":-89.0444,"dy":0.0017,"dx":0.0017,"nx":28,"ny":28,"refTime":"2023-10-08T03:00:00:Z","depth":0,"parameterNumber":2,"parameterNumberName":"U-component_of_WINDS"},"data":[0,0,0,0,0,0,0,0,0,0,0,0,0,0,0,0,0,0,0,0,0,0,0,0,0,0,0,0,0,0,0,0,0,0,0,0,0,0,0,0,0,0,0,0,0,0,0,0,0,0,0,0,0,0,0,0,0,0,-2.912,-2.9121,0,-2.9168,-2.9169,-2.9169,-2.911,-2.9108,-2.9106,-2.9104,-2.9154,-2.9157,-2.916,0,0,0,0,0,0,0,0,0,0,0,0,0,-2.8979,-2.8982,-2.912,-2.9121,-2.9121,-2.9168,-2.9169,-2.9169,-2.9111,-2.9108,-2.9106,-2.9103,-2.9153,-2.9157,-2.9161,0,0,0,0,0,0,0,0,0,0,0,0,0,-2.9035,-2.8983,-2.912,-2.9098,-2.9096,-2.9168,-2.9169,-2.9169,-2.9111,-2.9108,-2.9105,-2.9102,-2.9151,-2.9156,-2.9161,-2.9257,0,0,-2.9177,-2.9179,0,0,0,0,0,0,0,0,-2.9032,-2.904,-2.9101,-2.91,-2.9098,-2.913,-2.9137,-2.9199,-2.9112,-2.9106,-2.9104,-2.91,-2.9149,-2.9154,-2.917,-2.926,-2.9262,-2.9177,-2.918,-2.9182,-2.9184,0,0,0,0,0,0,0,-2.9028,-2.9038,-2.9139,-2.9102,-2.91,-2.9086,-2.909,-2.9149,-2.9145,-2.9106,-2.9102,-2.9108,-2.9147,-2.9165,-2.917,-2.9262,-2.9177,-2.9181,-2.9184,-2.9186,-2.9435,-2.9438,0,0,0,0,0,0,-2.9027,-2.9035,-2.9138,-2.9141,-2.9056,-2.9091,-2.9096,-2.9123,-2.9144,-2.9144,-2.9111,-2.9105,-2.9158,-2.9165,-2.9172,-2.9287,-2.9182,-2.9187,-2.919,-2.9431,-2.9436,-2.9439,0,0,0,0,0,0,-2.9024,-2.9037,-2.9136,-2.9087,-2.9098,-2.9097,-2.9128,-2.9126,-2.9143,-2.9148,-2.9147,-2.913,-2.9156,-2.9165,-2.9237,-2.9288,-2.9189,-2.9194,-2.9427,-2.9433,-2.9438,-2.9518,0,0,0,0,0,0,-2.902,-2.9036,-2.9072,-2.9088,-2.9101,-2.92,-2.9131,-2.9129,-2.9152,-2.9145,-2.9165,-2.9165,-2.9154,-2.923,-2.9242,-2.9293,-2.9198,-2.9422,-2.9429,-2.9436,-2.9511,-2.9525,-2.9538,0,0,0,0,0,-2.9016,-2.9093,-2.9074,-2.9087,-2.9146,-2.9203,-2.921,-2.9195,-2.9156,-2.9193,-2.9196,-2.9165,-2.928,-2.9237,-2.9251,-2.9304,-2.9419,-2.9427,-2.9435,-2.9504,-2.9522,-2.9537,0,0,0,0,0,0,-2.9083,-2.9094,-2.9074,-2.9159,-2.918,-2.9193,-2.9239,-2.9214,-2.9248,-2.924,-2.922,-2.9225,-2.9302,-2.931,-2.9262,-2.9399,-2.9343,-2.9354,-2.9391,-2.9408,-2.9422,-2.9419,-2.9202,0,0,0,0,0,-2.9108,-2.9152,-2.916,-2.9234,-2.9245,-2.924,-2.9264,-2.9251,-2.9272,-2.9281,-2.9289,-2.9312,-2.9353,-2.9381,-2.9419,-2.9511,-2.9515,-2.9554,-2.9568,-2.9579,-2.9589,-2.964,-2.9658,-2.9466,-2.9466,-2.9466,0,0,-2.9159,-2.9171,-2.92,-2.9247,-2.9263,-2.931,-2.9248,-2.93,-2.9336,-2.9289,-2.9358,-2.9365,-2.9388,-2.9471,-2.9508,-2.948,-2.9643,-2.9589,-2.9598,-2.9603,-2.965,-2.9669,-2.9685,-2.9471,-2.947,-2.947,0,0,-2.9278,-2.929,-2.9354,-2.9371,-2.9394,-2.939,-2.9406,-2.9422,-2.9425,-2.9493,-2.946,-2.9501,-2.9572,-2.9591,-2.961,-2.9736,-2.971,-2.9749,-2.9821,-2.9871,-2.9886,-2.9899,-2.9946,-2.9963,-2.9759,-2.9759,-2.9759,0,-2.9339,-2.9409,-2.939,-2.9445,-2.9468,-2.9427,-2.9492,-2.9509,-2.9544,-2.9561,-2.9529,-2.9618,-2.9631,-2.9719,-2.975,-2.9765,-2.9783,-2.9748,-2.9885,-2.9898,-2.9911,-2.9955,-2.9973,-2.9764,-2.9764,-2.9763,-2.9763,0,-2.9484,-2.9533,-2.9582,-2.9617,-2.9644,-2.9704,-2.9695,-2.9725,-2.9709,-2.9709,-2.978,-2.9794,-2.9835,-2.9854,-2.9839,-2.994,-2.9922,-2.9888,-2.9832,-2.9934,-2.9976,-2.9993,-2.9771,-2.9769,-2.9768,-2.9767,0,0,-2.9648,-2.9672,-2.9691,-2.9707,-2.973,-2.9768,-2.9825,-2.9865,-2.9893,-2.9918,-2.9967,-3.0028,-2.9997,-3.0019,-3.0005,-3.0048,-3.015,-3.0009,-3.0009,-3.0037,-3.0264,-3.0292,-3.0312,-3.0131,-3.0134,-3.0137,-3.0263,0,-2.9769,-2.987,-2.9855,-2.9952,-2.9998,-2.996,-3.0011,-3.0031,-3.0032,-3.0071,-3.0072,-3.0117,-3.0071,-3.0084,-3.0125,-3.0129,-3.0196,-3.0119,-3.0179,-3.0181,-3.0176,-3.0333,-3.0362,-3.048,-3.0279,-3.0282,-3.0284,0,-2.9923,-2.9955,-3.0057,-3.0074,-3.0093,-3.0139,-3.0175,-3.0212,-3.0234,-3.0232,-3.0256,-3.0235,-3.0294,-3.0235,-3.0317,-3.0266,-3.0288,-3.0294,-3.0298,-3.0305,-3.024,-3.0346,-3.0517,-3.0536,-3.0309,-3.0307,-3.0305,0,-3.0035,-3.0103,-3.0173,-3.0188,-3.0209,-3.0242,-3.0253,-3.0271,-3.0297,-3.0328,-3.0345,-3.0382,-3.0404,-3.0434,-3.0423,-3.0381,-3.0508,-3.0448,-3.0509,-3.051,-3.0539,-3.0538,-3.0719,-3.0551,-3.055,-3.055,-3.055,0,-3.0173,-3.0237,-3.0224,-3.0268,-3.034,-3.0321,-3.0393,-3.0398,-3.0416,-3.046,-3.0429,-3.0471,-3.0454,-3.0496,-3.0488,-3.0558,-3.0567,-3.0568,-3.0565,-3.0572,-3.0572,-3.0588,-3.0581,-3.0555,-3.0554,-3.0553,-3.0552,0,-3.0311,-3.0304,-3.0379,-3.0393,-3.0398,-3.045,-3.0462,-3.0504,-3.0502,-3.0559,-3.0571,-3.0569,-3.0616,-3.0608,-3.0661,-3.0655,-3.0744,-3.073,-3.0737,-3.0734,-3.0797,-3.0792,-3.0996,-3.1023,-3.0835,-3.0837,-3.0838,0,-3.04,-3.0449,-3.0469,-3.0496,-3.0509,-3.0554,-3.058,-3.0563,-3.0592,-3.0621,-3.0659,-3.0704,-3.0739,-3.0816,-3.082,-3.086,-3.0848,-3.0917,-3.0854,-3.086,-3.0852,-3.0851,-3.0856,-3.0931,-3.0933,-3.0934,-3.0936,0,-3.0561,-3.0555,-3.0593,-3.0632,-3.0663,-3.0692,-3.0718,-3.0742,-3.0728,-3.0762,-3.081,-3.0837,-3.0891,-3.0936,-3.0974,-3.0984,-3.0959,-3.0955,-3.0972,-3.0981,-3.0983,-3.0985,-3.0773,-3.0951,-3.095,-3.0949,-3.0948,-3.0947,-3.0679,-3.0721,-3.0742,-3.0786,-3.0804,-3.0829,-3.0869,-3.0872,-3.0912,-3.0955,-3.0942,-3.0997,-3.1019,-3.1067,-3.1082,-3.1125,-3.11,-3.1123,-3.113,-3.1137,-3.1145,-3.0975,-3.1131,-3.1131,-3.1131,-3.113,-3.113,0,-3.0839,-3.0851,-3.0891,-3.0929,-3.0964,-3.0935,-3.0963,-3.0994,-3.1043,-3.1065,-3.11,-3.1156,-3.12,-3.1207,-3.1248,-3.1282,-3.1271,-3.1294,-3.1292,-3.1296,-3.1164,-3.1147,-3.1302,-3.1302,-3.1302,-3.1302,-3.1302,-3.1302,-3.0927,-3.0998,-3.0995,-3.1075,-3.1085,-3.114,-3.1158,-3.1181,-3.1199,-3.1263,-3.1299,-3.1303,-3.1319,-3.1362,-3.1401,-3.1402,-3.142,-3.1447,-3.1444,-3.1322,-3.1305,-3.1288,-3.1272,-3.1451,-3.1451,-3.1572,-3.1573,-3.1574]},{"header":{"parameterUnit":"m.s-1","parameterCategory":1,"la1":30.2991,"la2":30.254,"lo1":-89.0895,"lo2":-89.0444,"dy":0.0017,"dx":0.0017,"nx":28,"ny":28,"refTime":"2023-10-08T03:00:00:Z","depth":0,"parameterNumber":3,"parameterNumberName":"V-component_of_WINDS"},"data":[0,0,0,0,0,0,0,0,0,0,0,0,0,0,0,0,0,0,0,0,0,0,0,0,0,0,0,0,0,0,0,0,0,0,0,0,0,0,0,0,0,0,0,0,0,0,0,0,0,0,0,0,0,0,0,0,0,0,-3.7511,-3.7512,0,-3.7543,-3.7543,-3.7544,-3.7493,-3.7492,-3.749,-3.7488,-3.7519,-3.7521,-3.7523,0,0,0,0,0,0,0,0,0,0,0,0,0,-3.7406,-3.7408,-3.7511,-3.7512,-3.7512,-3.7543,-3.7543,-3.7544,-3.7494,-3.7492,-3.7489,-3.7488,-3.7518,-3.7521,-3.7524,0,0,0,0,0,0,0,0,0,0,0,0,0,-3.7446,-3.7409,-3.7511,-3.7491,-3.7489,-3.7543,-3.7543,-3.7544,-3.7494,-3.7492,-3.7489,-3.7487,-3.7517,-3.752,-3.7524,-3.7598,0,0,-3.7535,-3.7537,0,0,0,0,0,0,0,0,-3.7444,-3.745,-3.7494,-3.7493,-3.7491,-3.7512,-3.7517,-3.7562,-3.7495,-3.7492,-3.7488,-3.7485,-3.7518,-3.7522,-3.7533,-3.7599,-3.7601,-3.7535,-3.7537,-3.7539,-3.754,0,0,0,0,0,0,0,-3.7441,-3.7448,-3.7524,-3.7494,-3.7493,-3.748,-3.7482,-3.7525,-3.7519,-3.7492,-3.7489,-3.7493,-3.7517,-3.753,-3.7533,-3.7601,-3.7535,-3.7538,-3.7541,-3.7542,-3.773,-3.7733,0,0,0,0,0,0,-3.7441,-3.7446,-3.7523,-3.7525,-3.746,-3.7484,-3.7487,-3.7508,-3.7519,-3.7518,-3.7495,-3.7491,-3.7525,-3.7529,-3.7534,-3.7622,-3.7539,-3.7542,-3.7544,-3.7727,-3.7731,-3.7734,0,0,0,0,0,0,-3.7439,-3.7448,-3.7522,-3.7485,-3.7493,-3.7488,-3.7512,-3.751,-3.7522,-3.7521,-3.752,-3.751,-3.7523,-3.7529,-3.7583,-3.7623,-3.7544,-3.7547,-3.7724,-3.7728,-3.7732,-3.7799,0,0,0,0,0,0,-3.7436,-3.7448,-3.7476,-3.7486,-3.7495,-3.757,-3.7514,-3.7512,-3.7529,-3.7523,-3.7534,-3.7533,-3.7521,-3.7578,-3.7586,-3.7626,-3.755,-3.772,-3.7726,-3.7731,-3.7793,-3.7805,-3.7815,0,0,0,0,0,-3.7432,-3.7493,-3.7478,-3.7488,-3.7531,-3.7573,-3.7578,-3.7564,-3.7532,-3.7561,-3.756,-3.7533,-3.7617,-3.7584,-3.7593,-3.7634,-3.7718,-3.7724,-3.7731,-3.7788,-3.7802,-3.7815,0,0,0,0,0,0,-3.7488,-3.7494,-3.7477,-3.7543,-3.7558,-3.7564,-3.76,-3.7579,-3.7603,-3.7596,-3.7576,-3.7579,-3.7637,-3.7641,-3.7604,-3.7707,-3.7662,-3.7671,-3.7702,-3.7716,-3.7727,-3.7725,-3.7553,0,0,0,0,0,-3.7508,-3.7543,-3.7546,-3.7603,-3.7612,-3.7605,-3.7622,-3.761,-3.7624,-3.763,-3.7633,-3.7647,-3.7676,-3.7696,-3.7723,-3.7793,-3.7795,-3.7826,-3.7837,-3.7846,-3.7854,-3.7891,-3.7905,-3.7755,-3.7755,-3.7755,0,0,-3.755,-3.7557,-3.758,-3.7615,-3.7625,-3.766,-3.761,-3.765,-3.7676,-3.7635,-3.7687,-3.769,-3.7704,-3.7766,-3.7794,-3.7771,-3.7896,-3.7854,-3.7861,-3.7864,-3.7899,-3.7913,-3.7926,-3.7759,-3.7758,-3.7758,0,0,-3.7644,-3.7653,-3.7703,-3.7714,-3.773,-3.7725,-3.7737,-3.7746,-3.7747,-3.7798,-3.7769,-3.7799,-3.785,-3.7862,-3.7874,-3.7973,-3.7949,-3.7982,-3.8039,-3.8076,-3.8088,-3.8098,-3.8134,-3.8147,-3.799,-3.799,-3.799,0,-3.7694,-3.7747,-3.773,-3.7772,-3.7788,-3.7754,-3.7804,-3.7815,-3.7839,-3.7851,-3.7825,-3.7889,-3.7896,-3.7961,-3.7985,-3.7996,-3.8009,-3.7981,-3.8088,-3.8098,-3.8108,-3.8141,-3.8155,-3.7994,-3.7994,-3.7993,-3.7993,0,-3.7807,-3.7844,-3.7882,-3.7907,-3.7927,-3.7973,-3.7963,-3.7985,-3.7971,-3.7968,-3.8021,-3.8028,-3.8056,-3.8071,-3.8057,-3.8133,-3.8119,-3.8091,-3.8046,-3.8126,-3.8158,-3.817,-3.8,-3.7998,-3.7997,-3.7996,0,0,-3.7938,-3.7953,-3.7968,-3.7979,-3.7994,-3.8022,-3.8065,-3.8094,-3.8113,-3.8131,-3.8167,-3.8211,-3.8185,-3.82,-3.8187,-3.8219,-3.8297,-3.8187,-3.8187,-3.8208,-3.8383,-3.8404,-3.842,-3.8281,-3.8284,-3.8286,-3.8382,0,-3.8032,-3.8109,-3.8095,-3.817,-3.8204,-3.8172,-3.821,-3.8223,-3.8222,-3.825,-3.8248,-3.828,-3.8243,-3.8252,-3.8282,-3.8281,-3.8332,-3.8274,-3.8315,-3.8316,-3.8313,-3.8436,-3.8459,-3.8549,-3.8394,-3.8396,-3.8397,0,-3.8152,-3.8176,-3.8254,-3.8264,-3.8278,-3.8312,-3.8337,-3.8365,-3.8379,-3.8375,-3.8392,-3.8373,-3.8416,-3.8369,-3.8428,-3.8389,-3.8405,-3.8407,-3.841,-3.8414,-3.8362,-3.8444,-3.8578,-3.8592,-3.8417,-3.8415,-3.8414,0,-3.8241,-3.8291,-3.8344,-3.8355,-3.8368,-3.8393,-3.8399,-3.8411,-3.8429,-3.845,-3.8462,-3.8487,-3.8502,-3.8522,-3.851,-3.8478,-3.8572,-3.8524,-3.857,-3.857,-3.8592,-3.8591,-3.8731,-3.8601,-3.8601,-3.86,-3.86,0,-3.8348,-3.8397,-3.8384,-3.8417,-3.8471,-3.8455,-3.8508,-3.8511,-3.8521,-3.8554,-3.8527,-3.8558,-3.854,-3.857,-3.856,-3.8611,-3.8617,-3.8616,-3.8613,-3.8619,-3.8619,-3.8629,-3.8623,-3.8604,-3.8603,-3.8602,-3.8602,0,-3.8456,-3.8449,-3.8506,-3.8514,-3.8517,-3.8556,-3.8563,-3.8593,-3.859,-3.8631,-3.864,-3.8634,-3.8667,-3.8658,-3.8693,-3.8687,-3.8751,-3.874,-3.8747,-3.8744,-3.8791,-3.8787,-3.8943,-3.8963,-3.882,-3.8821,-3.8822,0,-3.8525,-3.8563,-3.8575,-3.8595,-3.8604,-3.8637,-3.8655,-3.864,-3.866,-3.8679,-3.8707,-3.8738,-3.8762,-3.8816,-3.8815,-3.8842,-3.8832,-3.8885,-3.8836,-3.884,-3.8833,-3.8832,-3.8835,-3.8895,-3.8896,-3.8898,-3.8899,0,-3.8649,-3.8644,-3.8672,-3.87,-3.8723,-3.8743,-3.8761,-3.8779,-3.8765,-3.8789,-3.8823,-3.8842,-3.8878,-3.8909,-3.8934,-3.8939,-3.8917,-3.8914,-3.8926,-3.8933,-3.8936,-3.8935,-3.8774,-3.8911,-3.8909,-3.8909,-3.8908,-3.8907,-3.874,-3.8772,-3.8786,-3.8818,-3.883,-3.8848,-3.8877,-3.8878,-3.8906,-3.8935,-3.8924,-3.8963,-3.8976,-3.9007,-3.9016,-3.9046,-3.9026,-3.9043,-3.9048,-3.9052,-3.9059,-3.8931,-3.905,-3.905,-3.9049,-3.9049,-3.9049,0,-3.8863,-3.8871,-3.8901,-3.8927,-3.8952,-3.893,-3.8948,-3.8971,-3.9006,-3.902,-3.9044,-3.9083,-3.9113,-3.9115,-3.9143,-3.9166,-3.9157,-3.9174,-3.9173,-3.9174,-3.9075,-3.9062,-3.9182,-3.9181,-3.9181,-3.9181,-3.9181,-3.9181,-3.893,-3.8983,-3.898,-3.9038,-3.9045,-3.9084,-3.9097,-3.9112,-3.9124,-3.9169,-3.9194,-3.9195,-3.9204,-3.9232,-3.9259,-3.9258,-3.927,-3.9291,-3.9287,-3.9194,-3.9181,-3.9169,-3.9157,-3.9294,-3.9294,-3.9384,-3.9385,-3.9386]}]]